Location: Fazenda Monte Alegre
(4.8500°S, 38.0333°W)
Time: 14:07:23
(UTC+00:00)

USA 215 - Pass Details

Date: 24 September 2020
Orbit: 1102 x 1106 km, 123.0° (Epoch: 09 October)

Event Time Altitude Azimuth Distance (km) Brightness Sun altitude
Rises 20:36:24 0° 128° (SE) 3,919 5.7 -3.0°
Reaches altitude 10° 20:39:06 10° 120° (ESE) 2,958 5.0 -3.7°
Maximum altitude 20:45:02 38° 54° (NE) 1,622 3.8 -5.2°
Drops below altitude 10° 20:50:56 10° 348° (NNW) 2,945 5.7 -6.7°
Sets 20:53:36 0° 341° (NNW) 3,900 6.4 -7.3°
